Wind_Speed
83 79 75 74 72 67 65 64 60 58 56 57 53 50 45 42 43 39 36 36 35 35 33 31 31 35 41 44 48 54 55 56 60 62 62 62 61 59 59 57 56 56 57 57
86 81 75 72 70 68 66 62 61 57 56 57 56 51 45 43 43 41 38 36 35 35 33 33 32 30 31 32 37 44 48 51 57 58 55 57 59 59 60 61 61 62 63 64
90 84 78 73 71 68 64 61 60 57 55 59 58 50 46 44 42 42 40 37 33 34 35 35 33 30 29 30 31 33 37 41 45 50 55 59 57 59 61 63 65 68 70 70
92 86 80 76 72 69 64 61 58 57 53 59 59 51 48 47 43 41 41 37 35 33 36 36 34 34 32 30 28 29 31 35 39 41 46 52 57 60 61 62 64 65 66 68
95 89 83 77 74 70 66 62 57 56 57 58 58 52 50 50 44 41 42 39 35 35 34 32 30 32 32 31 29 30 31 33 34 36 37 41 45 49 50 52 53 53 51 51
98 92 85 79 75 69 67 62 59 58 57 57 55 56 56 52 47 42 43 42 41 37 34 31 32 34 34 32 31 30 30 31 32 33 32 33 36 37 40 42 43 45 47 48
99 94 88 82 77 72 69 66 65 60 60 58 58 56 54 51 47 44 44 43 42 39 34 32 33 33 33 33 33 33 33 34 34 34 34 35 35 36 38 40 42 45 47 49
101 96 91 84 79 73 69 68 64 62 60 61 57 53 51 49 47 46 44 43 43 37 36 34 30 29 29 29 29 30 32 34 36 39 41 40 42 41 42 44 45 47 49 52
102 98 92 86 81 75 71 70 67 63 60 59 56 53 54 54 49 52 51 46 43 36 37 35 31 28 25 24 25 27 30 31 33 38 43 44 45 42 44 45 46 48 52 55
103 99 95 88 80 76 74 73 70 66 62 61 58 54 57 57 53 55 52 45 41 39 39 36 33 32 29 28 30 31 32 33 34 38 41 42 44 48 50 50 50 52 54 57
105 100 96 90 81 78 76 74 72 68 64 61 60 58 58 59 58 53 54 49 47 43 39 38 36 35 33 33 34 34 35 36 38 39 41 44 44 45 47 50 50 52 56 59
106 102 97 90 83 81 78 74 72 71 67 62 61 58 59 58 57 55 52 49 47 42 41 43 43 42 40 38 39 37 38 37 40 42 43 44 44 45 46 49 52 54 58 61
108 104 98 91 87 83 79 74 71 71 70 67 62 58 58 57 57 57 54 52 48 47 49 50 49 46 43 41 39 38 38 41 44 44 45 45 46 47 48 51 54 58 59 60
110 105 100 94 89 85 79 74 71 69 69 68 64 60 59 59 58 57 56 53 51 47 42 44 45 46 46 43 40 39 40 43 45 47 47 47 49 50 50 52 54 56 59 60
111 107 101 95 92 87 81 77 72 69 69 67 67 62 57 57 58 57 56 55 54 54 48 44 43 44 43 43 43 40 42 48 49 49 49 50 52 52 53 56 57 59 60 62
111 108 103 98 94 88 83 79 74 70 67 66 66 62 58 58 58 58 58 56 56 56 55 52 50 47 45 46 46 43 46 50 52 53 53 55 54 54 56 58 59 62 65 68
112 108 103 100 95 90 86 80 75 71 69 68 65 64 61 58 58 59 59 59 57 55 54 53 53 52 49 49 48 47 49 51 55 56 55 55 54 55 56 59 62 66 68 70
115 109 104 103 98 92 88 85 82 77 72 69 66 64 63 60 59 59 59 59 59 59 57 56 54 55 53 52 51 52 54 58 60 57 56 55 56 57 59 62 64 67 69 73
116 111 107 106 100 94 90 89 84 79 74 69 65 65 65 63 61 60 60 60 61 61 60 60 59 58 57 56 56 57 59 60 58 56 55 55 57 59 62 64 66 70 71 71
119 115 110 107 102 98 95 93 88 82 75 69 68 66 65 66 65 62 61 61 61 61 61 60 58 58 57 57 59 62 60 57 56 55 57 59 60 63 64 67 69 70 71 75
119 116 111 105 103 100 99 93 87 82 78 71 68 67 66 65 65 64 63 63 64 64 62 59 58 58 59 61 62 61 58 56 57 59 61 63 65 67 69 70 70 72 75 78
111 111 109 108 106 103 99 93 87 81 76 74 72 68 67 67 66 66 66 65 63 63 64 63 63 63 61 61 60 59 59 60 61 63 65 66 68 68 69 70 73 75 78 84
110 112 114 111 108 104 96 89 84 77 74 75 72 70 70 69 69 68 66 64 63 65 64 64 64 62 61 61 61 62 63 63 65 65 66 67 68 69 70 72 75 79 83 86
110 108 106 107 103 98 92 89 87 83 83 84 80 76 72 71 70 69 68 65 65 64 63 64 62 61 60 61 63 62 63 64 65 66 67 69 70 71 73 75 79 81 85 84
105 101 102 101 98 97 94 91 89 88 86 84 82 78 79 78 72 69 68 68 67 65 66 64 63 62 62 62 63 63 65 67 68 69 70 70 71 74 76 79 81 84 84 80
101 97 94 92 92 93 94 96 94 91 90 88 84 82 80 80 76 72 70 68 67 67 67 66 64 65 65 65 66 68 69 69 70 71 72 74 75 77 80 82 83 83 79 75
94 92 91 92 92 91 91 93 92 91 88 86 85 82 80 78 76 73 71 70 68 67 67 67 67 68 67 68 68 69 70 70 71 73 74 76 77 79 80 80 79 75 72 65
Wind_Direction
217 219 220 223 223 222 225 227 228 228 228 225 228 227 226 227 231 233 237 242 243 246 248 247 248 252 253 254 254 253 256 258 261 263 266 268 270 271 271 274 276 279 281 284
215 217 218 220 222 221 223 225 226 227 227 221 223 225 224 227 230 232 235 241 245 250 253 253 251 253 255 257 260 259 260 260 262 265 266 267 268 269 270 272 276 279 282 283
214 215 216 218 220 221 221 221 225 226 223 219 221 221 222 227 228 231 235 239 244 247 252 257 259 259 259 259 263 266 261 260 263 264 265 267 270 270 271 273 276 279 282 285
214 214 215 217 218 220 220 220 222 224 222 219 221 221 221 225 227 229 235 240 243 246 251 257 263 266 264 263 265 268 267 264 267 271 272 272 272 274 277 279 281 284 286 289
213 213 213 216 217 218 219 220 220 222 220 219 220 219 223 226 228 227 234 238 240 244 251 259 264 269 271 271 270 271 273 272 270 272 276 276 279 282 285 286 289 290 290 292
213 212 212 215 215 216 216 217 219 219 220 219 219 218 219 221 223 227 230 234 239 243 250 259 263 267 271 275 275 273 275 276 274 275 276 279 282 284 285 287 291 294 298 300
211 211 211 213 214 215 215 216 216 215 216 216 218 218 217 220 222 228 231 233 240 243 249 255 259 265 270 271 275 280 282 282 282 286 286 289 291 292 294 295 297 299 300 302
210 210 210 211 213 213 215 217 218 219 217 218 219 217 215 217 220 227 232 233 237 242 247 252 257 262 269 274 278 281 284 286 289 290 291 292 293 295 297 297 299 298 299 301
208 209 209 210 211 213 215 218 219 220 219 218 218 215 214 216 219 223 227 230 234 239 245 251 254 259 264 269 278 284 286 288 291 290 289 289 290 292 291 293 295 296 298 302
206 207 208 209 209 212 215 217 218 219 219 218 217 215 214 217 222 225 228 231 234 237 242 249 253 257 264 270 276 281 287 293 294 291 293 297 297 291 290 292 294 297 300 301
205 206 207 208 207 210 214 215 217 218 219 218 217 215 216 219 222 226 227 231 233 236 243 248 252 256 263 270 274 281 287 291 293 294 297 301 303 301 297 297 298 298 300 301
204 205 206 207 205 209 211 213 215 217 219 219 219 217 217 219 221 226 229 232 235 237 243 246 250 253 258 267 275 283 289 292 292 295 300 303 305 306 304 301 300 302 303 308
203 205 205 205 204 207 209 211 213 216 219 220 219 219 218 219 222 226 229 229 231 239 246 250 251 255 260 266 272 283 289 291 293 299 300 301 301 303 305 305 304 305 307 309
201 203 204 204 204 206 206 208 211 214 217 219 219 219 218 218 222 226 230 232 234 238 244 250 254 257 259 265 271 281 286 287 294 300 303 303 302 303 305 304 307 310 312 313
201 202 203 203 203 204 205 208 209 212 216 218 220 221 221 220 223 227 230 233 234 237 241 246 249 254 260 266 272 279 283 287 293 300 304 301 301 303 301 303 308 311 312 313
200 202 203 203 204 204 205 207 209 212 216 218 220 222 221 223 225 228 230 234 237 239 243 249 254 256 259 265 273 279 280 286 293 302 303 301 302 301 301 304 307 309 311 315
200 202 203 203 204 204 205 208 210 211 215 218 219 222 224 225 226 230 233 236 238 242 244 247 251 256 260 267 273 277 280 286 294 300 298 298 299 300 301 303 306 308 313 315
200 202 203 204 204 204 206 210 212 212 214 218 219 220 222 225 228 230 234 238 240 242 245 248 250 255 261 267 272 276 283 288 293 295 296 297 297 301 302 304 308 312 314 317
201 203 204 205 204 206 208 211 213 214 216 218 221 223 224 227 229 232 235 238 240 244 246 248 254 260 265 269 275 281 285 289 290 291 293 296 299 301 305 308 310 313 315 318
202 204 205 206 206 208 211 214 214 214 215 218 222 225 227 227 229 233 235 238 242 245 250 254 259 263 267 272 276 281 285 285 288 290 293 297 300 304 307 308 312 314 317 320
202 204 206 207 209 210 214 216 217 218 217 219 224 226 230 232 233 235 237 240 242 245 249 253 257 260 265 270 275 278 281 285 288 291 294 299 302 304 306 309 311 314 318 320
203 205 207 209 211 213 215 216 217 218 219 221 224 227 231 234 236 236 238 241 244 248 252 255 259 263 268 271 276 279 282 285 288 291 296 298 300 304 307 310 312 315 318 317
204 206 207 210 213 215 215 217 219 220 222 227 228 230 232 234 237 240 242 244 246 249 254 257 260 265 268 272 275 278 282 286 289 293 295 298 302 306 309 311 312 314 316 317
205 207 209 211 213 215 217 218 221 223 225 228 229 232 234 237 238 240 244 247 249 253 255 259 263 265 268 272 275 279 282 285 289 291 296 300 303 306 308 310 311 313 315 316
206 208 209 212 214 217 219 222 224 226 227 229 232 234 236 237 241 243 245 247 250 252 255 260 263 266 270 273 276 279 283 285 289 293 297 300 301 304 306 308 310 312 314 314
206 208 210 212 215 218 221 223 225 227 230 232 234 237 239 240 242 245 247 248 249 253 257 261 264 266 269 273 277 279 282 285 289 294 296 298 300 302 305 307 309 311 311 312
206 207 208 212 215 216 219 222 225 227 230 232 235 237 238 239 241 245 248 250 253 254 258 261 264 267 270 274 277 279 282 286 290 293 295 297 299 301 304 305 308 309 309 310
Height
10505 10520 10536 10548 10561 10574 10584 10594 10606 10615 10625 10635 10642 10650 10660 10664 10670 10677 10680 10683 10687 10688 10691 10693 10695 10697 10700 10702 10702 10704 10705 10707 10707 10708 10711 10711 10709 10710 10709 10705 10703 10702 10700 10698
10491 10506 10523 10535 10549 10561 10572 10585 10595 10605 10614 10624 10631 10642 10652 10657 10663 10669 10673 10676 10680 10681 10684 10685 10689 10692 10693 10694 10694 10695 10696 10698 10696 10697 10702 10701 10701 10699 10696 10695 10693 10691 10689 10685
10476 10493 10510 10523 10537 10550 10563 10574 10585 10595 10605 10612 10621 10635 10645 10648 10656 10662 10665 10670 10675 10675 10675 10677 10681 10684 10685 10687 10687 10688 10688 10686 10686 10686 10688 10688 10690 10689 10687 10684 10683 10679 10676 10675
10463 10481 10497 10511 10526 10540 10553 10564 10576 10585 10597 10602 10612 10629 10637 10641 10648 10655 10657 10663 10667 10669 10668 10671 10675 10675 10677 10679 10680 10680 10681 10679 10679 10678 10679 10678 10676 10675 10675 10674 10670 10667 10663 10659
10450 10469 10484 10498 10515 10531 10543 10555 10568 10577 10584 10593 10606 10621 10628 10633 10640 10648 10651 10654 10659 10660 10662 10664 10667 10667 10668 10670 10673 10673 10673 10671 10671 10670 10671 10668 10666 10665 10663 10659 10656 10653 10648 10644
10436 10455 10473 10489 10505 10520 10532 10545 10556 10565 10574 10585 10598 10607 10614 10623 10633 10638 10642 10645 10648 10653 10657 10660 10661 10659 10661 10664 10665 10667 10665 10664 10664 10662 10663 10660 10658 10658 10654 10650 10646 10643 10637 10632
10424 10443 10459 10475 10492 10507 10523 10534 10543 10554 10563 10574 10582 10596 10608 10618 10626 10629 10632 10638 10640 10645 10651 10654 10654 10654 10656 10657 10657 10658 10657 10656 10655 10654 10653 10652 10651 10649 10646 10642 10638 10633 10628 10623
10411 10432 10447 10464 10481 10499 10513 10524 10535 10546 10557 10565 10578 10591 10604 10611 10617 10620 10624 10629 10630 10638 10642 10645 10648 10649 10650 10650 10651 10651 10651 10649 10648 10644 10643 10644 10641 10640 10637 10632 10629 10624 10619 10614
10400 10420 10436 10452 10471 10489 10501 10513 10525 10537 10548 10559 10569 10583 10593 10600 10606 10608 10612 10620 10625 10632 10633 10636 10639 10642 10644 10645 10646 10645 10645 10644 10642 10638 10635 10635 10633 10633 10629 10625 10621 10616 10611 10604
10388 10408 10424 10442 10462 10479 10489 10502 10515 10528 10539 10549 10561 10573 10581 10589 10594 10598 10606 10615 10620 10622 10625 10629 10633 10635 10637 10640 10640 10639 10638 10638 10636 10631 10627 10625 10625 10623 10619 10616 10612 10606 10601 10594
10376 10395 10413 10433 10453 10466 10478 10492 10505 10518 10529 10540 10550 10561 10571 10579 10585 10592 10598 10606 10609 10614 10619 10622 10626 10628 10630 10631 10631 10632 10633 10631 10628 10624 10621 10617 10614 10611 10608 10604 10600 10595 10589 10582
10365 10384 10403 10425 10442 10453 10469 10483 10496 10509 10519 10532 10540 10551 10561 10569 10578 10585 10590 10598 10602 10608 10611 10614 10618 10619 10621 10623 10623 10624 10624 10622 10618 10616 10613 10609 10605 10602 10598 10594 10588 10583 10576 10568
10353 10373 10394 10414 10430 10445 10460 10475 10487 10498 10510 10520 10532 10543 10552 10561 10569 10574 10582 10588 10594 10598 10601 10605 10607 10610 10613 10616 10616 10618 10616 10612 10608 10608 10605 10602 10598 10593 10589 10583 10577 10571 10564 10558
10341 10362 10384 10403 10420 10435 10453 10466 10477 10489 10499 10511 10522 10532 10541 10551 10558 10565 10572 10580 10586 10590 10592 10594 10598 10601 10603 10607 10609 10610 10608 10602 10601 10599 10597 10592 10588 10584 10580 10573 10568 10561 10555 10549
10331 10352 10373 10395 10409 10427 10444 10455 10467 10479 10489 10502 10511 10523 10535 10544 10550 10557 10563 10569 10575 10581 10584 10586 10588 10591 10595 10598 10600 10602 10597 10591 10592 10592 10590 10584 10579 10576 10570 10564 10558 10551 10545 10538
10322 10343 10364 10384 10399 10420 10433 10445 10459 10470 10483 10492 10503 10515 10525 10533 10540 10547 10553 10560 10566 10571 10575 10578 10580 10582 10586 10588 10592 10594 10586 10583 10582 10582 10577 10572 10569 10565 10559 10554 10547 10540 10533 10526
10313 10334 10356 10374 10391 10410 10425 10440 10452 10462 10471 10480 10493 10505 10515 10523 10531 10538 10544 10550 10556 10562 10566 10567 10569 10572 10577 10578 10583 10582 10578 10575 10573 10571 10566 10562 10559 10554 10549 10543 10537 10529 10522 10514
10305 10326 10347 10361 10381 10399 10414 10424 10436 10447 10461 10471 10484 10497 10503 10512 10520 10528 10534 10540 10546 10552 10555 10559 10560 10562 10567 10570 10570 10569 10569 10566 10563 10561 10556 10551 10547 10542 10537 10531 10525 10518 10511 10502
10295 10315 10332 10347 10369 10389 10403 10410 10426 10440 10454 10468 10479 10485 10494 10503 10510 10517 10525 10530 10535 10541 10545 10548 10552 10554 10558 10558 10558 10559 10559 10556 10551 10549 10546 10542 10537 10531 10526 10521 10514 10507 10499 10489
10280 10299 10319 10339 10361 10377 10387 10398 10417 10433 10448 10459 10467 10476 10485 10493 10500 10508 10515 10521 10526 10530 10535 10540 10545 10545 10547 10548 10548 10546 10546 10543 10539 10537 10533 10529 10524 10520 10514 10508 10501 10494 10485 10476
10267 10292 10317 10339 10354 10367 10378 10394 10411 10427 10442 10452 10460 10468 10476 10484 10492 10499 10505 10511 10516 10520 10524 10530 10533 10533 10537 10538 10535 10534 10533 10530 10528 10524 10520 10517 10512 10507 10502 10495 10488 10480 10472 10462
10274 10295 10313 10326 10338 10353 10368 10387 10406 10421 10434 10443 10449 10458 10467 10475 10481 10486 10493 10499 10506 10511 10513 10519 10520 10523 10526 10525 10523 10522 10520 10518 10516 10513 10509 10505 10499 10495 10489 10481 10473 10465 10457 10448
10266 10278 10292 10311 10328 10346 10368 10389 10405 10421 10431 10434 10442 10448 10454 10461 10469 10475 10482 10489 10496 10498 10503 10506 10509 10513 10514 10514 10512 10509 10508 10506 10503 10500 10496 10492 10487 10481 10475 10467 10459 10451 10443 10433
10250 10268 10290 10304 10325 10347 10368 10383 10393 10403 10409 10413 10425 10433 10443 10450 10457 10465 10474 10480 10483 10489 10491 10492 10500 10500 10501 10500 10499 10498 10495 10493 10490 10486 10483 10478 10473 10467 10461 10455 10447 10439 10430 10419
10247 10266 10282 10301 10325 10343 10358 10371 10380 10389 10396 10404 10415 10424 10429 10436 10448 10457 10463 10468 10474 10476 10477 10482 10486 10487 10487 10487 10485 10485 10483 10480 10476 10473 10469 10464 10459 10454 10448 10442 10434 10425 10416 10406
10241 10262 10284 10301 10318 10333 10345 10356 10365 10375 10383 10391 10403 10410 10421 10429 10439 10445 10451 10456 10461 10465 10466 10469 10473 10473 10473 10473 10472 10470 10468 10466 10463 10459 10455 10450 10445 10440 10435 10428 10419 10411 10402 10393
10240 10258 10274 10290 10304 10316 10329 10340 10351 10361 10371 10381 10390 10399 10408 10417 10426 10432 10437 10442 10448 10451 10453 10456 10458 10458 10459 10459 10458 10455 10453 10452 10449 10445 10440 10435 10431 10426 10420 10412 10405 10397 10389 10381